Flag for U.S.A. Weather past 2 weeks in Richmond, Virginia, U.S.A.

Now
61 °F

Passing clouds.


Feels Like: 61 °F
Forecast: 57 / 70 °F
Wind: 5 mph from South

Location: Richmond International Airport

Current Time: Apr 19, 2015 at 12:38:19 AM

Latest Report: Apr 18, 2015 at 10:54 PM


Visibility: 10 mi

Pressure: 30.04 "Hg

Humidity: 72%

Dew point: 52 °F

Location of RichmondLocation

Historic Weather in Richmond — Graph

°F

Richmond temperature yesterday

Maximum temperature yesterday: 82 °F (at 2:54 PM)
Minimum temperature yesterday: 61 °F (at 10:54 PM)
Average temperature yesterday: 71 °F

Past Weeks' High & Low Weather Summary

 TemperatureHumidityPressure
High83 °F (Apr 10, 2:54 PM)100% (Apr 8, 3:04 AM)30.40 "Hg (Apr 8, 3:04 AM)
Low34 °F (Apr 5, 6:54 AM)16% (Apr 5, 3:54 PM)29.70 "Hg (Apr 4, 2:54 AM)
Average61 °F62%30.16 "Hg
* Reported Apr 3 10:54 PM — Apr 18 10:54 PM, Richmond, Weather by CustomWeather, © 2015

Note: Actual official high and low records may vary slightly from our data, if they occured in-between our weather recording intervals... More about our weather records

Advertising

Richmond weather history for previous 24 hours

 ConditionsComfort  
Time TempWeatherWind HumidityBarometerVisibility
10:54 PM
Sat, Apr 18
61 °FPassing clouds.5 mph72%30.04 "Hg10 mi
9:54 PM66 °FPassing clouds.5 mph59%30.02 "Hg10 mi
8:54 PM68 °FPassing clouds.6 mph57%30.00 "Hg10 mi
7:54 PM72 °FPartly sunny.9 mph48%29.97 "Hg10 mi
6:54 PM79 °FHigh level clouds.6 mph38%29.96 "Hg10 mi
5:54 PM81 °FOvercast.5 mph35%29.96 "Hg10 mi
4:54 PM82 °FMore clouds than sun.3 mph32%29.96 "Hg10 mi
3:54 PM82 °FOvercast.No wind32%29.95 "Hg10 mi
2:54 PM82 °FPartly sunny.3 mph35%29.96 "Hg10 mi
1:54 PM80 °FScattered clouds.6 mph39%29.99 "Hg10 mi
12:54 PM78 °FScattered clouds.No wind42%30.01 "Hg10 mi
11:54 AM76 °FPassing clouds.7 mph45%30.03 "Hg10 mi
10:54 AM75 °FScattered clouds.5 mph50%30.03 "Hg10 mi
9:54 AM71 °FPartly sunny.10 mph59%30.03 "Hg10 mi
8:54 AM68 °FPartly sunny.6 mph70%30.02 "Hg10 mi
7:54 AM64 °FMostly cloudy.8 mph84%30.03 "Hg10 mi
6:54 AM63 °FMostly cloudy.9 mph87%30.01 "Hg10 mi
5:54 AM63 °FLight rain. Overcast.3 mph93%29.99 "Hg10 mi
4:54 AM63 °FOvercast.3 mph93%29.97 "Hg9 mi
3:54 AM62 °FFog.No wind93%29.97 "Hg6 mi
2:54 AM63 °FFog.No wind93%29.97 "Hg7 mi
1:54 AM64 °FFog.No wind94%29.99 "Hg7 mi
12:54 AM63 °FFog.No wind97%29.99 "Hg5 mi
Weather by CustomWeather, © 2015

See weather overviewHow to use our weather pages